Tracking 32460 objects as of 11-Dec-2025
HD Live streaming from Space Station
objects crossing your sky now

GORIZONT 13

Track GORIZONT 13 now!
GORIZONT 13 is classified as:


NORAD ID: 17083
Int'l Code: 1986-090A
Perigee: 36,748.5 km
Apogee: 36,887.7 km
Inclination: 12.5 °
Period: 1,488.7 minutes
Semi major axis: 43189 km
RCS: 2.5139 m2 (large)
Launch date: November 18, 1986
Source: Commonwealth of Independent States (former USSR) (CIS)
Launch site: TYURATAM MISSILE AND SPACE COMPLEX (TTMTR)
Your satellite tracking list
Your tracking list is empty




NASA's NSSDC Master Catalog

Two Line Element Set (TLE):
1 17083U 86090A   25344.93934425 -.00000079  00000-0  00000-0 0  9996
2 17083  12.5060 329.9691 0016109 350.9128 190.2058  0.96725650116822
Source of the keplerian elements: AFSPC